Calgary Springbank,

3:37 PM MDT on April 27, 2017 (GMT -0600)
Calgary Springbank

Weather History for CYBW - September, 2013

Change the Weather History Date:

Saturday, September 14, 2013

  Actual Average Record
Temperature  
Mean Temperature 60 °F -  
Max Temperature 72 °F 54 °F 79 °F (2012)
Min Temperature 49 °F 31 °F 32 °F (2002)
Degree Days  
Heating Degree Days 4    
Growing Degree Days 10 (Base 50)    
Moisture  
Dew Point 51 °F    
Average Humidity 66    
Maximum Humidity 94    
Minimum Humidity 40    
Precipitation  
Precipitation 0.00 in - - ()
Sea Level Pressure  
Sea Level Pressure 30.13 in    
Wind  
Wind Speed 7 mph ()    
Max Wind Speed 18 mph    
Max Gust Speed 28 mph    
Visibility 13.9 miles    
Events      
Averages and records for this station are not official NWS values.
T = Trace of Precipitation, MM = Missing Value Source: Averaged Metar Reports

Daily Weather History Graph

Daily Weather History Graph

Search for Another Location

Airport or City:

Trip Planner

Search our weather history database for the weather conditions in past years. The results will help you decide how hot, cold, wet, or windy it might be!

Date:

Astronomy

Sep. 14, 2013 Rise Set
Actual Time 7:11 AM MDT 7:53 PM MDT
Civil Twilight 6:38 AM MDT 8:26 PM MDT
Nautical Twilight 5:58 AM MDT 9:06 PM MDT
Astronomical Twilight 5:15 AM MDT 9:48 PM MDT
Moon 5:02 PM MDT (9/14) 1:20 AM MDT (9/14)
Length of Visible Light 13h 48m
Length of Day
12h 41m
Waxing Gibbous, 73% of the Moon is Illuminated
Sep 14
Waxing Gibbous
Sep 19
Full
Sep 26
Last Quarter
Oct 4
New
Oct 11
First Quarter

Hourly Weather History & Observations

Time (MDT) Temp. Dew Point Humidity Pressure Visibility Wind Dir Wind Speed Gust Speed Precip Events Conditions
5:55 AM 51.8 °F 48.2 °F 88% 30.11 in 15.0 mi Variable 2.3 mph - N/A   Partly Cloudy
6:00 AM 52 °F 49 °F 85% 30.11 in 15 mi West 1.2 mph - -   Scattered Clouds
6:00 AM 51.8 °F 48.2 °F 88% 30.11 in 15.0 mi Calm Calm - N/A   Partly Cloudy
7:00 AM 50.0 °F 48.2 °F 94% 30.14 in 8.0 mi West 2.3 mph - N/A   Mostly Cloudy
8:00 AM 51.8 °F 48.2 °F 88% 30.17 in 15.0 mi NNW 3.5 mph - N/A   Mostly Cloudy
9:00 AM 55.4 °F 51.8 °F 88% 30.18 in 15.0 mi SSE 2.3 mph - N/A   Mostly Cloudy
10:00 AM 60.8 °F 53.6 °F 77% 30.17 in 15.0 mi SSE 8.1 mph - N/A   Mostly Cloudy
11:00 AM 62.6 °F 53.6 °F 72% 30.17 in 10.0 mi SE 8.1 mph - N/A   Partly Cloudy
12:00 PM 65 °F 53 °F 57% 30.17 in 10 mi SE 10.4 mph - -   Partly Cloudy
12:00 PM 66.2 °F 53.6 °F 64% 30.16 in 10.0 mi SE 10.4 mph - N/A   Scattered Clouds
1:00 PM 68.0 °F 55.4 °F 64% 30.15 in 10.0 mi SE 10.4 mph 18.4 mph N/A   Scattered Clouds
2:00 PM 69.8 °F 53.6 °F 56% 30.12 in 10.0 mi SE 16.1 mph 23.0 mph N/A   Partly Cloudy
3:00 PM 71.6 °F 55.4 °F 57% 30.10 in 40.0 mi SSE 13.8 mph 21.9 mph N/A   Partly Cloudy
4:00 PM 71.6 °F 53.6 °F 53% 30.09 in 15.0 mi SE 18.4 mph - N/A   Partly Cloudy
5:00 PM 71.6 °F 53.6 °F 53% 30.08 in 20.0 mi SSE 16.1 mph 27.6 mph N/A   Partly Cloudy
6:00 PM 70 °F 51 °F 40% 30.09 in 19 mi Calm Calm - -   Scattered Clouds
6:00 PM 69.8 °F 51.8 °F 53% 30.09 in 20.0 mi SSE 18.4 mph - N/A   Partly Cloudy
7:00 PM 68.0 °F 50.0 °F 52% 30.09 in 30.0 mi SSE 16.1 mph - N/A   Partly Cloudy
8:00 PM 64.4 °F 48.2 °F 56% 30.11 in 30.0 mi SSE 12.7 mph - N/A   Partly Cloudy
9:00 PM 62.6 °F 46.4 °F 55% 30.11 in 30.0 mi SE 15.0 mph - N/A   Partly Cloudy
10:00 PM 59.0 °F 42.8 °F 55% 30.11 in 15.0 mi SSE 11.5 mph - N/A   Clear